Location: Bothwell
(42.3833°S, 147.0000°E)
Time: 20:21:05
(UTC+11:00)

MOZHAYETS 4 - Pass Details

Date: 03 October 2022
Orbit: 659 x 678 km, 98.2° (Epoch: 25 November)

Event Time Altitude Azimuth Distance (km) Brightness Sun altitude
Rises 04:07:06 0° 161° (SSE) 3,043 11.9 -27.6°
Reaches altitude 10° 04:09:26 10° 154° (SSE) 2,124 11.0 -27.3°
Maximum altitude 04:13:54 45° 81° (E) 918 8.6 -26.6°
Enters shadow 04:15:01 38° 43° (NE) 1,034 8.7 -26.4°
